Regional Weather Roundup
Issued by NWS

Home | Current Version | Previous Version | Text Only | Print | Product List | Glossary Off
Versions: 1 2 3 4 5 6 7 8 9 10 11 12 13 14 15 16 17 18 19 20 21 22 23 24 25 26 27 28 29 30 31 32 33 34 35 36 37 38 39 40 41 42 43 44 45 46 47 48 49 50

635
ASUS45 KBOU 011907
RWRCO

WEATHER ROUNDUP FOR COLORADO
NATIONAL WEATHER SERVICE DENVER/BOULDER CO
1200 PM MST WED MAR 01 2017

NOTE: "FAIR" INDICATES FEW OR NO CLOUDS BELOW 12000 FEET WITH NO
SIGNIFICANT WEATHER AND/OR OBSTRUCTIONS TO VISIBILITY.

COZ001>005-013-030-031-012000-
...NORTHWEST COLORADO...

CITY           SKY/WX    TMP DP  RH WIND       PRES   REMARKS
CRAIG          FAIR      24   7  48 CALM      30.38S
HAYDEN         FAIR      25   7  46 NW8       30.35F WCI  16
MEEKER         FAIR      30  12  47 CALM      30.35F
MOUNT WERNER   NOT AVBL
STEAMBOAT SPGS FAIR      25   7  45 NW9       30.33F WCI  16
WALDEN         NOT AVBL
$$

COZ006>008-011-012000-
...WEST CENTRAL VALLEYS...

CITY           SKY/WX    TMP DP  RH WIND       PRES   REMARKS
GRAND JUNCTION FAIR      36  11  35 E3        30.42F
MONTROSE       FAIR      31   7  36 CALM      30.43F
EAGLE          SUNNY     30   7  37 CALM      30.37F
RIFLE          FAIR      33   8  35 W10       30.40F WCI  25
DELTA          FAIR      37   9  31 S6        30.43F
NUCLA          FAIR      34   5  29 CALM      30.42F
$$

COZ017>023-064>068-012000-
...SOUTHWEST COLORADO...

CITY           SKY/WX    TMP DP  RH WIND       PRES   REMARKS
DURANGO        FAIR      27  12  53 CALM      30.34S
CORTEZ         FAIR      33  11  39 MISG      30.38S
PAGOSA SPRINGS FAIR      29   4  35 S6        30.30F WCI  23
TELLURIDE      FAIR      23  -3  31 CALM      30.30F
WOLF CREEK PAS   N/A     14  14 100 SW8       30.27R WCI   3
$$

COZ009-010-012-014-032>034-037-058>063-012000-
...CENTRAL COLORADO...

CITY           SKY/WX    TMP DP  RH WIND       PRES   REMARKS
ASPEN          FAIR      24   3  40 NW6       30.29F WCI  17
BUENA VISTA    FAIR      32  -5  19 NW17G25   30.17F WCI  21
COPPER MTN     NOT AVBL
BERTHOUD PASS    N/A      1  -8  66 NW30G46   30.05R HAZE    WCI -24
COTTONWOOD PAS FAIR      28 -27   8 SW22G35   30.15F WCI  15
GUNNISON       FAIR      14   2  58 E7        30.35F WCI   4
KREMMLING      FAIR      34  10  37 SW9       30.31F WCI  26
LEADVILLE      FAIR      20  -6  31 N9        30.19F WCI   9
MONARCH PASS     N/A      5   1  85 SW37      30.24S WCI -21
SALIDA         FAIR      36  -6  16 SW15G22   30.27F
SUNLIGHT       NOT AVBL
WILKERSON PASS FAIR      23  -8  25 SW14G20   30.13F WCI  11
$$

COZ069>075-012000-
...SAN LUIS VALLEY/SANGRE DE CRISTO MOUNTAINS...

CITY           SKY/WX    TMP DP  RH WIND       PRES   REMARKS
ALAMOSA        FAIR      30   4  33 CALM      30.28F
LA VETA PASS   FAIR      27   0  31 S22G33    30.19F WCI  12
SAGUACHE       FAIR      32   3  29 NW8       30.27F WCI  25
$$

COZ035-036-038>040-012000-
...NORTHERN COLORADO FRONT RANGE...

CITY           SKY/WX    TMP DP  RH WIND       PRES   REMARKS
DENVER INTL AP FAIR      42  -1  16 SW8       30.15F
DMNS CITY PARK   N/A     42  -4  14 SE15      30.15S
AURORA         MOSUNNY   40  -5  14 S8        30.16F
FRONT RANGE AP MOSUNNY   41   0  17 S3        30.17F
ERIE MUNI ARPT FAIR      43  -7  12 CALM      30.15F
BOULDER MUN AP FAIR      43   1  17 SE5       30.14S
CENTENNIAL     FAIR      38  -3  17 VRB3      30.15F
BROOMFIELD     MOSUNNY   43  -2  15 W18G31    30.15F
FORT COLLINS   FAIR      41   3  20 VRB5      30.16F
LONGMONT       NOT AVBL
$$

COZ041-046-047-076>085-087-088-012000-
...PIKES PEAK/PALMER DIVIDE AND SOUTHERN FOOTHILLS...

CITY           SKY/WX    TMP DP  RH WIND       PRES   REMARKS
COLO. SPRINGS  FAIR      38  -3  17 SE14      30.19F
A. F. ACADEMY  FAIR      37  -2  19 S13G21    30.16F
SCHRIEVER AFB  FAIR      35  -4  18 S16G24    30.20F WCI  26
ELLICOTT       FAIR     N/A N/A N/A S13       30.19F
FALCON         FAIR      35  -1  21 S13       30.18F WCI  26
FORT CARSON    FAIR      40  -3  16 SE10      30.18F
LIMON          FAIR      36   9  32 VRB6      30.21F
MONUMENT HILL  FAIR      32   9  37 S10       30.17S WCI  24
TRINIDAD       FAIR      42   7  23 VRB7      30.22F
$$

COZ042>045-048>051-090-091-012000-
...NORTHEAST COLORADO...

CITY           SKY/WX    TMP DP  RH WIND       PRES   REMARKS
GREELEY ARPT   FAIR      41   4  21 VRB6      30.19F
AKRON          FAIR      39  10  30 W15G23    30.19S
BURLINGTON     FAIR      45   5  19 NW18G25   30.23S
WRAY           NOT AVBL
STERLING       FAIR      45   9  23 NW24G41   30.18F
HOLYOKE        FAIR      45   9  23 NW28G37   30.21S
FORT MORGAN    FAIR      40   9  28 SW13      30.20F
$$

COZ086-089-092>099-012000-
...SOUTHEAST COLORADO...

CITY           SKY/WX    TMP DP  RH WIND       PRES   REMARKS
PUEBLO         FAIR      45  -2  14 VRB5      30.20F
LA JUNTA       FAIR      44   5  20 VRB5      30.26F
LAMAR          FAIR      46   1  15 W7        30.26F
SPRINGFIELD      N/A     45   7  21 VRB5      30.25F
$$




USA.gov is the U.S. government's official web portal to all federal, state and local government web resources and services.